x

9414311 - San Francisco (pier 1), Ca (pxoc1) Weather Station

1:54pm - Tue 16th Oct 2018 All times are PDT. -7 hours from GMT.

  • Wind
    3mph, 6mph gusts
  • Air Temp 64°f
  • Sea Pressure 1017mb
  • 9414311 - San Francisco (pier 1), Ca
  • 9414311 - San Francisco (pier 1), Ca

More Historic Weather Station data

Upgrade to MSW Pro to gain access to the past 30 days of data for over 8000 Wavebouys and Weather Stations around the globe.

Join

Comparision Forecast

View Surf forecast
   
Tue 10/16 1:54pm 3 6 mph 1017mb 64f
1:48pm 3 5 mph 1017mb 63f
1:42pm 5 6 mph 1017mb 63f
1:36pm 2 3 mph 1017.1mb 64f
1:30pm  -  2 mph 1017.2mb 63f
1:24pm 1 2 mph 1017.3mb 63f
1:18pm 2 2 mph 1017.4mb 62f
1:12pm 1 2 mph 1017.6mb 62f
1:06pm 2 3 mph 1017.6mb 62f
1:00pm 2 3 mph 1017.7mb 62f
12:54pm 2 3 mph 1017.8mb 62f
12:48pm 2 2 mph 1017.9mb 61f
12:42pm 2 2 mph 1018.1mb 61f
12:36pm 2 2 mph 1018.1mb 61f
12:30pm 2 2 mph 1018.2mb 61f
12:24pm 1 2 mph 1018.2mb 61f
12:18pm 2 2 mph 1018.3mb 61f
12:12pm 2 2 mph 1018.3mb 61f
12:06pm 2 3 mph 1018.3mb 61f
12:00pm 3 3 mph 1018.3mb 61f
11:54am 2 3 mph 1018.4mb 61f
11:48am 2 3 mph 1018.5mb 61f
11:42am 3 3 mph 1018.6mb 61f
11:36am 2 3 mph 1018.6mb 60f
11:30am 2 3 mph 1018.7mb 60f
11:24am 2 3 mph 1018.7mb 60f
11:18am 2 5 mph 1018.8mb 60f
11:12am 3 5 mph 1018.8mb 60f
11:06am  -  2 mph 1018.9mb 60f
11:00am 2 3 mph 1018.9mb 60f
10:54am 2 3 mph 1018.9mb 60f
10:48am 2 3 mph 1018.9mb 60f
10:42am 2 3 mph 1019mb 60f
10:36am 2 2 mph 1019mb 60f
10:30am 2 2 mph 1019mb 60f
10:24am 1 2 mph 1019mb 60f
10:18am 2 2 mph 1019mb 60f
10:12am 1 2 mph 1019mb 60f
10:06am 2 2 mph 1019mb 59f
10:00am 2 3 mph 1018.9mb 60f
9:18am 2 3 mph 1018.9mb 60f
9:12am 2 5 mph 1018.8mb 60f
9:06am 3 5 mph 1018.8mb 59f
9:00am 3 3 mph 1018.8mb 59f
8:54am 2 3 mph 1018.8mb 59f
8:48am 3 3 mph 1018.7mb 59f
8:42am 2 3 mph 1018.7mb 59f
8:36am 1 2 mph 1018.7mb 60f
8:30am 1 3 mph 1018.7mb 60f
8:24am 1 3 mph 1018.6mb 60f
8:18am 2 2 mph 1018.5mb 60f
8:12am 2 2 mph 1018.5mb 59f
8:06am 1 2 mph 1018.4mb 59f
8:00am 1 2 mph 1018.3mb 60f
7:54am  -  2 mph 1018.3mb 59f
7:48am  -  1 mph 1018.2mb 58f
7:42am  -  1 mph 1018.2mb 58f
7:36am  -  1 mph 1018.2mb 58f
7:30am 1 1 mph 1018.3mb 58f
7:24am  -  1 mph 1018.2mb 58f
7:18am 1 2 mph 1018.2mb 58f
7:12am  -  1 mph 1018.2mb 58f
7:06am 1 2 mph 1018.2mb 58f
7:00am  -  2 mph 1018.2mb 58f
6:54am  -  1 mph 1018.2mb 58f
6:48am  -  1 mph 1018.2mb 58f
6:42am  -  2 mph 1018.3mb 58f
6:36am 1 2 mph 1018.3mb 58f
6:30am  -  1 mph 1018.3mb 58f
6:24am 1 2 mph 1018.3mb 58f
6:18am 1 3 mph 1018.3mb 58f
6:12am 2 2 mph 1018.3mb 59f
6:06am 1 1 mph 1018.2mb 59f
6:00am 1 1 mph 1018.2mb 59f
5:48am 1 2 mph 1018.1mb 59f
5:42am 2 2 mph 1018.1mb 59f
5:36am 2 2 mph 1018.1mb 59f
5:30am 1 2 mph 1018mb 58f
5:24am  -  1 mph 1018.1mb 58f
5:18am  -  2 mph 1018.1mb 58f
5:12am 1 2 mph 1018.1mb 58f
5:06am 2 3 mph 1018.1mb 58f
5:00am 3 3 mph 1018.1mb 59f
4:54am 3 5 mph 1018.1mb 59f
4:48am 3 6 mph 1018.1mb 59f
4:42am 3 5 mph 1018.1mb 59f
4:36am 3 5 mph 1018.1mb 59f
4:30am 2 3 mph 1018.1mb 60f
4:24am  -  2 mph 1018mb 60f
4:18am 2 2 mph 1018mb 60f
4:12am 1 1 mph 1017.9mb 60f
4:06am  -  2 mph 1017.9mb 60f